DELTA 1 DEB, 2118

Orbit data source: Space-Track

DELTA 1 DEB, 2118 is space debris in SSO originally from a launch on Thu, 03 Feb 1966 UTC launched from the Air Force Eastern Test Range (AFETR). Debris objects in space refer to the collection of defunct objects orbiting the Earth. Examples of debris include non-operational satellites, rocket bodies, and fragments generated from explosions, collisions, or faulty payload assembly.

Loading next visibility...
Identifier
2118, 1966-008D
Orbit
SSO
Country
Flag of USUS
Related business
Manufacturer
Unknown
Mission
Spacecraft
Bus & Motor
Unknown
Mass
~1 kg wet, ~1 kg dry
Launch date (UTC)
1966-02-03 (60 years ago)
Launch vehicle
Unknown
Launch site
Air Force Eastern Test Range (AFETR)
Object type
Payload
Rocket body
Debris
Shape & HBR
Unknown
Radar Cross Section
Medium (>0.1 m² and <1 m²)

Expand to show TLE details & history
Last TLE update: 1 week ago

TLE from 1 week ago
0 DELTA 1 DEB
1 02118U 66008D   26151.29573806  .00000659  00000-0  17680-3 0  9992
2 02118  98.0576 284.2180 0124514 274.8046  83.8939 14.46891051133389
Epoch: 2026-05-31T07:05Z
TLE epoch observation values (Epoch: 2026-05-31T07:05:51.768Z)
Latitude
-0.00002°
Longitude
-71.04716°
Altitude
730.461 km
Speed
7.494 km/s
True Right ascension
18h 56m 52s
True Declination
0° 00' 00"
Sunlit
Object was in full shadow at epoch
Visualization orbit readout
Latitude
Unknown
Longitude
Unknown
Altitude
Unknown
Speed
Unknown
Apparent Right ascension
Unknown
Apparent Declination
Unknown
Sunlit
N/A
Visualization observer readout
Local Sidereal Time
12:34:24
Azimuth
Unknown
Elevation
Unknown
Doppler factor
Unknown
Orbital elements
Apogee altitude
821.455 km
Perigee altitude
644.37 km
Semi-major axis
7,111.049 km
Eccentricity
0.01245
Inclination
98.0576°
RAAN
284.218°
Arg. of periapsis
274.8046°
True anomaly
85.31484°
Mean anomaly
83.8939°
Eccentric anomaly
84.60415°
Mean motion
3.61945 °/min
Orbital period
99.46 mins
BSTAR
0.0001768
Loading maneuver chart data...
Computing Atmospheric mass density...
Loading historical data...
Loading historical data...
Loading historical data...
Loading historical data...
Loading historical data...
Loading historical data...
Loading historical data...
Other satellites on launch #8 in the year 1966 (1966-02-03 UTC)

Documentation

Showing up to 5 results
|